Home   Weather   Freeport   Past weeks

Flag for Bahamas Past Weather in Freeport, Bahamas — Yesterday and Last 2 Weeks

Now
78 °F

Passing clouds.


Feels Like: 80 °F
Forecast: 76 / 83 °F
Wind: 16 mph from Southeast

Location: Palm Beach International Airport

Current Time: Apr 29, 2017 at 3:25:29 am

Latest Report: Apr 29, 2017 at 2:53 am


Visibility: 10 mi

Pressure: 30.10 "Hg

Humidity: 79%

Dew Point: 71 °F

Location of FreeportLocation

Past Weather in Freeport — Graph

°F

Freeport Temperature Yesterday

Maximum temperature yesterday: 85 °F (at 11:53 am)
Minimum temperature yesterday: 78 °F (at 2:53 am)
Average temperature yesterday: 81 °F

High & Low Weather Summary for the Past Weeks

 TemperatureHumidityPressure
High87 °F (Apr 27, 1:53 pm)100% (Apr 23, 8:01 am)30.24 "Hg (Apr 23, 8:01 am)
Low61 °F (Apr 25, 6:53 am)42% (Apr 16, 12:53 pm)29.69 "Hg (Apr 24, 4:53 pm)
Average76 °F66%30.01 "Hg
* Reported Apr 14 1:53 am — Apr 29 1:53 am, Freeport, Weather by CustomWeather, © 2017

Note: Actual official high and low records may vary slightly from our data, if they occured in-between our weather recording intervals... More about our weather records

Advertising

Freeport Weather History for the Previous 24 Hours

Scroll right to see more
 ConditionsComfort  
Time TempWeatherWind HumidityBarometerVisibility
1:53 am
Sat, Apr 29
78 °FPartly cloudy.18 mph79%30.10 "Hg10 mi
12:53 am78 °FPassing clouds.20 mph79%30.11 "Hg10 mi
11:53 pm
Fri, Apr 28
78 °FPassing clouds.15 mph79%30.12 "Hg10 mi
10:53 pm79 °FPassing clouds.14 mph77%30.14 "Hg10 mi
9:53 pm79 °FPassing clouds.20 mph77%30.12 "Hg10 mi
8:53 pm79 °FPassing clouds.15 mph77%30.10 "Hg10 mi
7:53 pm80 °FPassing clouds.16 mph74%30.08 "Hg10 mi
6:53 pm81 °FScattered clouds.16 mph72%30.08 "Hg10 mi
5:53 pm82 °FScattered clouds.16 mph70%30.07 "Hg10 mi
4:53 pm83 °FScattered clouds.20 mph68%30.07 "Hg10 mi
3:53 pm83 °FBroken clouds.20 mph68%30.08 "Hg10 mi
2:53 pm85 °FBroken clouds.18 mph63%30.10 "Hg10 mi
1:53 pm84 °FScattered clouds.18 mph63%30.11 "Hg10 mi
1:24 pm84 °FScattered clouds.16 mph63%30.11 "Hg10 mi
12:53 pm85 °FBroken clouds.17 mph65%30.10 "Hg10 mi
12:15 pm83 °FPartly sunny.14 mph68%30.11 "Hg10 mi
11:53 am85 °FScattered clouds.15 mph63%30.11 "Hg10 mi
10:53 am84 °FScattered clouds.15 mph65%30.10 "Hg10 mi
9:53 am83 °FScattered clouds.14 mph65%30.09 "Hg10 mi
8:53 am81 °FScattered clouds.15 mph69%30.07 "Hg10 mi
7:53 am79 °FPassing clouds.10 mph77%30.06 "Hg10 mi
6:53 am78 °FScattered clouds.10 mph79%30.03 "Hg10 mi
5:53 am78 °FPassing clouds.12 mph82%30.00 "Hg10 mi
4:53 am78 °FPassing clouds.15 mph84%29.98 "Hg10 mi
3:53 am78 °FPassing clouds.12 mph84%29.98 "Hg10 mi
Weather by CustomWeather, © 2017

See weather overviewHow to use our weather pages